Hourly Weather Morozovka

Today, 12 July, Sunday

Time Temperature Precipitation Wind Pressure Humidity
00:00 +18°C° 0 mm 3 mps 748 mmHg 91%
01:00 +18°C° 0 mm 3 mps 748 mmHg 91%
02:00 +17°C° 0 mm 3 mps 748 mmHg 91%
03:00 +17°C° 0 mm 2 mps 748 mmHg 90%
04:00 +17°C° 0 mm 2 mps 747 mmHg 89%
05:00 +18°C° 0 mm 2 mps 747 mmHg 89%
06:00 +18°C° 0 mm 2 mps 747 mmHg 88%
07:00 +20°C° 0 mm 2 mps 747 mmHg 84%
08:00 +21°C° 0 mm 3 mps 747 mmHg 79%
09:00 +24°C° 0 mm 3 mps 747 mmHg 75%
10:00 +25°C° 0 mm 3 mps 747 mmHg 72%
11:00 +26°C° 0 mm 3 mps 747 mmHg 69%
12:00 +27°C° 0 mm 3 mps 746 mmHg 66%
13:00 +27°C° 0 mm 3 mps 746 mmHg 65%
14:00 +27°C° 0 mm 3 mps 746 mmHg 64%
15:00 +28°C° 0 mm 3 mps 746 mmHg 62%
16:00 +28°C° 0 mm 2 mps 745 mmHg 65%
17:00 +27°C° 0 mm 2 mps 745 mmHg 67%
18:00 +27°C° 0 mm 2 mps 745 mmHg 69%
19:00 +25°C° 0 mm 2 mps 745 mmHg 72%
20:00 +23°C° 0 mm 1 mps 745 mmHg 75%
21:00 +22°C° 0 mm 1 mps 745 mmHg 78%
22:00 +21°C° 0 mm 1 mps 744 mmHg 79%
23:00 +20°C° 0 mm 1 mps 744 mmHg 80%

Tomorrow, 13 July, Monday

Time Temperature Precipitation Wind Pressure Humidity
00:00 +20°C° 0 mm 1 mps 744 mmHg 81%
01:00 +19°C° 0 mm 1 mps 744 mmHg 83%
02:00 +19°C° 0 mm 1 mps 744 mmHg 84%
03:00 +19°C° 0 mm 1 mps 743 mmHg 85%
04:00 +19°C° 0 mm 1 mps 743 mmHg 86%
05:00 +19°C° 0 mm 1 mps 743 mmHg 87%
06:00 +19°C° 0 mm 1 mps 742 mmHg 88%
07:00 +20°C° 0 mm 2 mps 743 mmHg 85%
08:00 +21°C° 0 mm 2 mps 743 mmHg 82%
09:00 +23°C° 0 mm 2 mps 743 mmHg 79%
10:00 +24°C° 0.1 mm 2 mps 742 mmHg 76%
11:00 +25°C° 0.1 mm 2 mps 742 mmHg 73%
12:00 +26°C° 0.1 mm 2 mps 742 mmHg 70%
13:00 +25°C° 1.1 mm 2 mps 742 mmHg 71%
14:00 +25°C° 1.1 mm 2 mps 742 mmHg 72%
15:00 +25°C° 1.1 mm 2 mps 742 mmHg 73%
16:00 +24°C° 0.9 mm 2 mps 741 mmHg 77%
17:00 +24°C° 0.9 mm 2 mps 741 mmHg 81%
18:00 +23°C° 0.9 mm 2 mps 741 mmHg 85%
19:00 +21°C° 0.3 mm 2 mps 741 mmHg 87%
20:00 +20°C° 0.3 mm 2 mps 741 mmHg 90%
21:00 +19°C° 0.3 mm 3 mps 741 mmHg 93%
22:00 +19°C° 0.3 mm 3 mps 741 mmHg 93%
23:00 +18°C° 0.3 mm 4 mps 740 mmHg 94%

Day after tomorrow, 14 July, Tuesday

Time Temperature Precipitation Wind Pressure Humidity
00:00 +18°C° 0.3 mm 4 mps 740 mmHg 95%
01:00 +18°C° 0.3 mm 4 mps 740 mmHg 95%
02:00 +18°C° 0.3 mm 4 mps 740 mmHg 96%
03:00 +17°C° 0.3 mm 4 mps 740 mmHg 96%
04:00 +18°C° 0.6 mm 4 mps 739 mmHg 96%
05:00 +18°C° 0.6 mm 4 mps 738 mmHg 96%
06:00 +18°C° 0.6 mm 4 mps 738 mmHg 96%
07:00 +18°C° 0.3 mm 4 mps 738 mmHg 96%
08:00 +18°C° 0.3 mm 4 mps 738 mmHg 96%
09:00 +18°C° 0.3 mm 4 mps 739 mmHg 96%
10:00 +19°C° 0.8 mm 4 mps 739 mmHg 96%
11:00 +19°C° 0.8 mm 4 mps 738 mmHg 96%
12:00 +19°C° 0.8 mm 4 mps 738 mmHg 95%
13:00 +19°C° 0.6 mm 4 mps 738 mmHg 95%
14:00 +20°C° 0.6 mm 4 mps 738 mmHg 94%
15:00 +20°C° 0.6 mm 4 mps 738 mmHg 93%
16:00 +20°C° 1.6 mm 4 mps 737 mmHg 94%
17:00 +20°C° 1.6 mm 4 mps 737 mmHg 95%
18:00 +19°C° 1.6 mm 4 mps 736 mmHg 96%
19:00 +19°C° 0.6 mm 4 mps 736 mmHg 96%
20:00 +19°C° 0.6 mm 3 mps 736 mmHg 97%
21:00 +18°C° 0.6 mm 2 mps 735 mmHg 97%
22:00 +18°C° 0.3 mm 2 mps 735 mmHg 97%
23:00 +18°C° 0.3 mm 2 mps 735 mmHg 97%

15 July, Wednesday

Time Temperature Precipitation Wind Pressure Humidity
00:00 +19°C° 0.3 mm 1 mps 734 mmHg 97%
01:00 +18°C° 0 mm 1 mps 734 mmHg 97%
02:00 +18°C° 0 mm 1 mps 734 mmHg 97%
03:00 +18°C° 0 mm 1 mps 734 mmHg 97%
04:00 +17°C° 0.1 mm 2 mps 734 mmHg 97%
05:00 +17°C° 0.1 mm 2 mps 734 mmHg 97%
06:00 +17°C° 0.1 mm 2 mps 734 mmHg 97%
07:00 +18°C° 0.2 mm 2 mps 734 mmHg 96%
08:00 +18°C° 0.2 mm 3 mps 734 mmHg 96%
09:00 +18°C° 0.2 mm 3 mps 734 mmHg 95%
10:00 +18°C° 0.8 mm 3 mps 734 mmHg 93%
11:00 +18°C° 0.8 mm 4 mps 734 mmHg 91%
12:00 +19°C° 0.8 mm 5 mps 734 mmHg 89%
13:00 +19°C° 0.5 mm 5 mps 735 mmHg 88%
14:00 +19°C° 0.5 mm 5 mps 735 mmHg 87%
15:00 +19°C° 0.5 mm 5 mps 735 mmHg 86%
16:00 +19°C° 0.3 mm 5 mps 735 mmHg 87%
17:00 +17°C° 0.3 mm 5 mps 735 mmHg 89%
18:00 +17°C° 0.3 mm 5 mps 735 mmHg 90%
19:00 +16°C° 0.1 mm 5 mps 735 mmHg 91%
20:00 +15°C° 0.1 mm 5 mps 736 mmHg 93%
21:00 +15°C° 0.1 mm 5 mps 736 mmHg 95%
22:00 +15°C° 0.1 mm 5 mps 736 mmHg 94%
23:00 +15°C° 0.1 mm 5 mps 736 mmHg 94%

16 July, Thursday

Time Temperature Precipitation Wind Pressure Humidity
00:00 +15°C° 0.1 mm 5 mps 736 mmHg 94%
01:00 +15°C° 0 mm 6 mps 736 mmHg 94%
02:00 +15°C° 0 mm 6 mps 736 mmHg 93%
03:00 +14°C° 0 mm 6 mps 737 mmHg 93%
04:00 +14°C° 0 mm 6 mps 737 mmHg 93%
05:00 +14°C° 0 mm 6 mps 737 mmHg 94%
06:00 +13°C° 0 mm 6 mps 737 mmHg 94%
07:00 +13°C° 0.1 mm 6 mps 737 mmHg 94%
08:00 +13°C° 0.1 mm 6 mps 738 mmHg 93%
09:00 +14°C° 0.1 mm 6 mps 738 mmHg 93%
10:00 +14°C° 0 mm 6 mps 738 mmHg 91%
11:00 +14°C° 0 mm 5 mps 738 mmHg 90%
12:00 +15°C° 0 mm 5 mps 739 mmHg 89%
13:00 +15°C° 0 mm 5 mps 739 mmHg 89%
14:00 +15°C° 0 mm 5 mps 739 mmHg 88%
15:00 +15°C° 0 mm 6 mps 739 mmHg 88%
16:00 +15°C° 0 mm 5 mps 739 mmHg 87%
17:00 +15°C° 0 mm 5 mps 739 mmHg 87%
18:00 +15°C° 0 mm 5 mps 740 mmHg 87%
19:00 +15°C° 0 mm 5 mps 740 mmHg 87%
20:00 +15°C° 0 mm 4 mps 740 mmHg 88%
21:00 +14°C° 0 mm 4 mps 740 mmHg 88%
22:00 +14°C° 0 mm 4 mps 740 mmHg 90%
23:00 +14°C° 0 mm 5 mps 740 mmHg 91%

17 July, Friday

Time Temperature Precipitation Wind Pressure Humidity
00:00 +13°C° 0 mm 5 mps 740 mmHg 92%
01:00 +13°C° 0 mm 5 mps 740 mmHg 92%
02:00 +14°C° 0 mm 5 mps 740 mmHg 92%
03:00 +14°C° 0 mm 5 mps 740 mmHg 91%
04:00 +14°C° 0 mm 5 mps 740 mmHg 92%
05:00 +14°C° 0 mm 5 mps 740 mmHg 92%
06:00 +14°C° 0 mm 5 mps 740 mmHg 93%
07:00 +14°C° 0.1 mm 5 mps 740 mmHg 92%
08:00 +14°C° 0.1 mm 5 mps 740 mmHg 92%
09:00 +14°C° 0.1 mm 5 mps 740 mmHg 91%
10:00 +15°C° 0 mm 5 mps 740 mmHg 90%
11:00 +15°C° 0 mm 5 mps 741 mmHg 89%
12:00 +16°C° 0 mm 5 mps 741 mmHg 87%
13:00 +16°C° 0.1 mm 5 mps 741 mmHg 85%
14:00 +18°C° 0.1 mm 4 mps 741 mmHg 83%
15:00 +19°C° 0.1 mm 4 mps 741 mmHg 81%
16:00 +19°C° 0.1 mm 4 mps 741 mmHg 81%
17:00 +19°C° 0.1 mm 4 mps 741 mmHg 81%
18:00 +19°C° 0.1 mm 3 mps 742 mmHg 81%
19:00 +18°C° 0 mm 3 mps 742 mmHg 84%
20:00 +17°C° 0 mm 2 mps 742 mmHg 87%
21:00 +16°C° 0 mm 2 mps 742 mmHg 90%
22:00 +16°C° 0 mm 2 mps 742 mmHg 91%
23:00 +15°C° 0 mm 2 mps 742 mmHg 92%
Show more